Mandan, ND

9:49 AM CDT on March 27, 2017 (GMT -0500)
Mandan

Weather History for KY19 - October, 2012

Change the Weather History Date:

Saturday, October 13, 2012

  Actual Average (KBIS) Record (KBIS)
Temperature  
Mean Temperature 50 °F -  
Max Temperature 68 °F 58 °F 89 °F (1958)
Min Temperature 32 °F 33 °F 8 °F (1909)
Degree Days  
Heating Degree Days 15    
Moisture  
Dew Point 35 °F    
Average Humidity 64    
Maximum Humidity 100    
Minimum Humidity 26    
Precipitation  
Precipitation 0.00 in - - ()
Sea Level Pressure  
Sea Level Pressure 29.74 in    
Wind  
Wind Speed 10 mph (WNW)    
Max Wind Speed 22 mph    
Max Gust Speed 30 mph    
Visibility 10 miles    
Events      
Averages and records for this station are not official NWS values.
T = Trace of Precipitation, MM = Missing Value Source: NWS Daily Summary

Daily Weather History Graph

Daily Weather History Graph

Search for Another Location

Airport or City:

Trip Planner

Search our weather history database for the weather conditions in past years. The results will help you decide how hot, cold, wet, or windy it might be!

Date:

Astronomy

Oct. 13, 2012 Rise Set
Actual Time 7:59 AM CDT 6:59 PM CDT
Civil Twilight 7:28 AM CDT 7:29 PM CDT
Nautical Twilight 6:53 AM CDT 8:04 PM CDT
Astronomical Twilight 6:18 AM CDT 8:39 PM CDT
Moon 5:45 AM CDT (10/13) 5:47 PM CDT (10/13)
Length of Visible Light 12h 00m
Length of Day
10h 59m
Waning Crescent, 5% of the Moon is Illuminated
Oct 13
Waning Crescent
Oct 15
New
Oct 21
First Quarter
Oct 29
Full
Nov 6
Last Quarter

Hourly Weather History & Observations

Time (CDT) Temp. Windchill Dew Point Humidity Pressure Visibility Wind Dir Wind Speed Gust Speed Precip Events Conditions
12:55 AM 42.8 °F 36.6 °F 32.0 °F 66% 29.70 in 10.0 mi South 11.5 mph - N/A   Clear
1:35 AM 41.0 °F 33.9 °F 32.0 °F 70% 29.68 in 10.0 mi South 12.7 mph - N/A   Clear
1:55 AM 41.0 °F 33.9 °F 32.0 °F 70% 29.68 in 10.0 mi South 12.7 mph - N/A   Clear
2:15 AM 41.0 °F 34.3 °F 33.8 °F 76% 29.67 in 10.0 mi South 11.5 mph - N/A   Clear
2:35 AM 41.0 °F 35.2 °F 35.6 °F 81% 29.67 in 10.0 mi South 9.2 mph - N/A   Clear
2:55 AM 41.0 °F 34.3 °F 35.6 °F 81% 29.66 in 10.0 mi South 11.5 mph - N/A   Clear
3:35 AM 41.0 °F 35.2 °F 35.6 °F 81% 29.66 in 10.0 mi South 9.2 mph - N/A   Clear
3:55 AM 41.0 °F 35.2 °F 35.6 °F 81% 29.65 in 10.0 mi South 9.2 mph - N/A   Clear
4:15 AM 39.2 °F 34.2 °F 35.6 °F 87% 29.65 in 10.0 mi South 6.9 mph - N/A   Clear
4:35 AM 39.2 °F 35.0 °F 35.6 °F 87% 29.64 in 10.0 mi SSW 5.8 mph - N/A   Clear
4:55 AM 37.4 °F 33.8 °F 33.8 °F 87% 29.65 in 10.0 mi SW 4.6 mph - N/A   Clear
5:15 AM 37.4 °F 33.8 °F 35.6 °F 93% 29.64 in 10.0 mi SW 4.6 mph - N/A   Clear
5:35 AM 35.6 °F 32.8 °F 33.8 °F 93% 29.64 in 10.0 mi SSW 3.5 mph - N/A   Clear
5:55 AM 33.8 °F 28.6 °F 33.8 °F 100% 29.65 in 10.0 mi West 5.8 mph - N/A   Clear
6:15 AM 32.0 °F 27.5 °F 32.0 °F 100% 29.65 in 10.0 mi West 4.6 mph - N/A   Clear
6:35 AM 35.6 °F - 35.6 °F 100% 29.66 in 10.0 mi Calm Calm - N/A   Clear
6:55 AM 35.6 °F 30.7 °F 35.6 °F 100% 29.67 in 10.0 mi South 5.8 mph - N/A   Clear
7:15 AM 33.8 °F 29.6 °F 33.8 °F 100% 29.67 in 10.0 mi SW 4.6 mph - N/A   Clear
7:35 AM 32.0 °F 23.6 °F 32.0 °F 100% 29.68 in 10.0 mi West 10.4 mph - N/A   Clear
7:55 AM 35.6 °F 29.2 °F 33.8 °F 93% 29.69 in 10.0 mi West 8.1 mph - N/A   Clear
8:15 AM 35.6 °F 28.6 °F 33.8 °F 93% 29.69 in 10.0 mi West 9.2 mph - N/A   Clear
8:35 AM 35.6 °F 28.6 °F 33.8 °F 93% 29.70 in 10.0 mi West 9.2 mph - N/A   Clear
8:55 AM 37.4 °F 34.9 °F 35.6 °F 93% 29.70 in 10.0 mi West 3.5 mph - N/A   Clear
9:35 AM 42.8 °F 37.5 °F 35.6 °F 76% 29.71 in 10.0 mi NW 9.2 mph - N/A   Clear
9:55 AM 46.4 °F 41.5 °F 37.4 °F 71% 29.72 in 10.0 mi NW 10.4 mph - N/A   Clear
10:15 AM 48.2 °F - 37.4 °F 66% 29.72 in 10.0 mi NW 9.2 mph - N/A   Clear
10:35 AM 53.6 °F - 37.4 °F 54% 29.72 in 10.0 mi NW 9.2 mph - N/A   Clear
10:55 AM 55.4 °F - 39.2 °F 54% 29.72 in 10.0 mi NW 11.5 mph - N/A   Clear
11:15 AM 55.4 °F - 39.2 °F 54% 29.72 in 10.0 mi NNW 11.5 mph - N/A   Clear
11:35 AM 59.0 °F - 37.4 °F 45% 29.72 in 10.0 mi NNW 9.2 mph - N/A   Clear
11:55 AM 60.8 °F - 37.4 °F 42% 29.72 in 10.0 mi NNW 12.7 mph - N/A   Clear
12:35 PM 64.4 °F - 37.4 °F 37% 29.73 in 10.0 mi NW 15.0 mph - N/A   Clear
12:55 PM 66.2 °F - 35.6 °F 32% 29.73 in 10.0 mi NNW 15.0 mph - N/A   Clear
1:15 PM 66.2 °F - 35.6 °F 32% 29.73 in 10.0 mi NW 16.1 mph 21.9 mph N/A   Clear
1:35 PM 66.2 °F - 35.6 °F 32% 29.74 in 10.0 mi NW 17.3 mph - N/A   Clear
1:55 PM 66.2 °F - 35.6 °F 32% 29.74 in 10.0 mi NNW 19.6 mph 25.3 mph N/A   Clear
2:15 PM 66.2 °F - 35.6 °F 32% 29.74 in 10.0 mi NW 16.1 mph 23.0 mph N/A   Clear
2:35 PM 68.0 °F - 33.8 °F 28% 29.74 in 10.0 mi NW 21.9 mph 26.5 mph N/A   Clear
3:15 PM 68.0 °F - 32.0 °F 26% 29.75 in 10.0 mi NW 17.3 mph 26.5 mph N/A   Clear
3:35 PM 68.0 °F - 32.0 °F 26% 29.75 in 10.0 mi NNW 20.7 mph 28.8 mph N/A   Clear
3:55 PM 66.2 °F - 33.8 °F 30% 29.76 in 10.0 mi NNW 19.6 mph 25.3 mph N/A   Clear
4:15 PM 66.2 °F - 32.0 °F 28% 29.77 in 10.0 mi NNW 20.7 mph 29.9 mph N/A   Clear
4:35 PM 66.2 °F - 33.8 °F 30% 29.78 in 10.0 mi NNW 16.1 mph 26.5 mph N/A   Clear
4:55 PM 64.4 °F - 33.8 °F 32% 29.79 in 10.0 mi NNW 19.6 mph 26.5 mph N/A   Clear
5:15 PM 62.6 °F - 35.6 °F 37% 29.80 in 10.0 mi NW 12.7 mph - N/A   Clear
5:35 PM 60.8 °F - 37.4 °F 42% 29.81 in 10.0 mi NW 13.8 mph 19.6 mph N/A   Clear
5:55 PM 59.0 °F - 37.4 °F 45% 29.82 in 10.0 mi NW 11.5 mph - N/A   Clear
6:15 PM 57.2 °F - 37.4 °F 48% 29.82 in 7.0 mi NW 8.1 mph - N/A   Clear
6:35 PM 55.4 °F - 37.4 °F 51% 29.83 in 10.0 mi NNW 5.8 mph - N/A   Clear
7:35 PM 53.6 °F - 37.4 °F 54% 29.85 in 10.0 mi NW 8.1 mph - N/A   Partly Cloudy
7:55 PM 53.6 °F - 37.4 °F 54% 29.86 in 10.0 mi NW 9.2 mph - N/A   Partly Cloudy
8:55 PM 51.8 °F - 37.4 °F 58% 29.89 in 10.0 mi NNW 6.9 mph - N/A   Clear
9:15 PM 50.0 °F - 37.4 °F 62% 29.90 in 10.0 mi NNW 9.2 mph - N/A   Clear
9:35 PM 50.0 °F - 37.4 °F 62% 29.90 in 10.0 mi NNW 9.2 mph - N/A   Clear
9:55 PM 48.2 °F - 37.4 °F 66% 29.91 in 10.0 mi NNW 9.2 mph - N/A   Clear
10:15 PM 48.2 °F - 37.4 °F 66% 29.91 in 10.0 mi NW 9.2 mph - N/A   Clear
10:55 PM 46.4 °F 41.9 °F 37.4 °F 71% 29.93 in 10.0 mi NW 9.2 mph - N/A   Clear
11:15 PM 46.4 °F 41.5 °F 37.4 °F 71% 29.92 in 10.0 mi NW 10.4 mph - N/A   Clear
11:35 PM 44.6 °F 39.2 °F 37.4 °F 76% 29.93 in 10.0 mi NW 10.4 mph - N/A   Clear